Location: Noordwijk
(52.2400°N, 4.4500°E)
Time: 03:35:32
(UTC+00:00)

PCSat - Pass Details

Date: 16 December 2022
Orbit: 785 x 793 km, 67.0° (Epoch: 28 January)

Event Time Altitude Azimuth Distance (km) Brightness Sun altitude
Rises 16:48:16 0° 221° (SW) 3,273 14.1 -11.1°
Reaches altitude 10° 16:50:40 10° 223° (SW) 2,349 13.2 -11.4°
Maximum altitude 16:56:04 78° 310° (NW) 814 9.7 -12.2°
Enters shadow 17:00:58 13° 36° (NE) 2,159 11.3 -12.9°
